Simultaneous Nadir Overpasses (SNOs) Predictions

Prediction of SNOs between NOAA-21 and LANDSAT-8 Satellite Orbit:

Table of predicted SNOs for the next 14.0 days since TLE Epoch: 8/31/2024
Index Date (NOAA-21) Time (NOAA-21) Lat,Lon (NOAA-21) SZA (NOAA-21 ) Date (LANDSAT-8) Time (LANDSAT-8) Lat,Lon (LANDSAT-8) SZA (LANDSAT-8 ) Distance(km) Time Diff (sec)
1 09/01/2024 14:03:19 70.90, -35.72 62.91 09/01/2024 14:04:27 70.78, -33.74 62.73 73.31 68
2 09/01/2024 14:53:48 -70.12, 132.85 117.89 09/01/2024 14:54:07 -70.12, 132.92 117.90 2.56 19
3 09/01/2024 15:44:31 69.96, -59.60 61.96 09/01/2024 15:43:35 69.96, -59.66 61.97 2.40 56
4 09/04/2024 06:19:58 70.19, 81.21 63.15 09/04/2024 06:21:09 70.18, 81.25 63.13 1.66 71
5 09/04/2024 07:10:40 -70.10,-111.32 116.94 09/04/2024 07:10:39 -70.08,-111.27 116.96 2.91 1
6 09/04/2024 08:01:21 69.83, 56.39 62.80 09/04/2024 08:00:08 69.86, 56.07 62.84 12.59 73
7 09/06/2024 22:36:48 70.13,-162.91 64.08 09/06/2024 22:37:39 70.11,-162.97 64.06 3.42 51
8 09/06/2024 23:27:30 -70.04, 4.56 116.01 09/06/2024 23:27:08 -70.06, 4.59 115.99 2.96 22
9 09/07/2024 00:17:57 69.03, 173.33 62.97 09/07/2024 00:16:51 69.07, 170.89 63.07 97.33 66
10 09/09/2024 14:53:39 70.10, -47.06 65.05 09/09/2024 14:54:07 70.12, -47.07 65.07 3.02 28
11 09/09/2024 15:44:21 -70.00, 120.41 115.05 09/09/2024 15:43:37 -70.02, 120.42 115.02 2.32 44
12 09/12/2024 06:19:53 -70.55, -99.28 113.49 09/12/2024 06:21:04 -70.39, -98.44 113.67 36.09 71
13 09/12/2024 07:10:30 70.08, 68.77 66.04 09/12/2024 07:10:35 70.05, 68.73 66.01 3.33 5
14 09/12/2024 08:01:12 -69.98,-123.77 114.05 09/12/2024 08:00:05 -69.95,-123.79 114.08 3.47 67



Historial Predications of SNOs between NOAA-21 and LANDSAT-8
